Regional Weather Roundup
Issued by NWS

Home | Current Version | Previous Version | Text Only | Print | Product List | Glossary On
Versions: 1 2 3 4 5 6 7 8 9 10 11 12 13 14 15 16 17 18 19 20 21 22 23 24 25 26 27 28 29 30 31 32 33 34 35 36 37 38 39 40 41 42 43 44 45 46 47 48 49 50
000
ASUS43 KLMK 112110
RWRKY
KENTUCKY REGIONAL WEATHER ROUNDUP
NATIONAL WEATHER SERVICE LOUISVILLE KY
400 PM EST THU FEB 11 2016

NOTE "FAIR" INDICATES FEW OR NO CLOUDS BELOW 12,000 FEET
WITH NO SIGNIFICANT WEATHER AND/OR OBSTRUCTIONS TO VISIBILITY.

KYZ001>023-026-027-061>063-070>075-112200-
WESTERN AND SOUTH CENTRAL KENTUCKY

CITY           SKY/WX    TMP DP  RH WIND       PRES   REMARKS
PADUCAH        MOSUNNY   38  23  55 E6        30.25S WCI  33
HENDERSON      SUNNY     30  14  51 NE6       30.28S WCI  24
OWENSBORO      SUNNY     32   9  38 N7        30.28F WCI  26
HOPKINSVILLE   SUNNY     37  23  57 NE8       30.23F WCI  31
BOWLING GREEN  MOSUNNY   38  17  42 NW5       30.25S WCI  34
GLASGOW        SUNNY     35  19  51 NE3       30.23S
$$

KYZ024-025-028>034-038-045-046-053-112200-
NORTH CENTRAL KENTUCKY

CITY           SKY/WX    TMP DP  RH WIND       PRES   REMARKS
LOUISVILLE/SDF MOSUNNY   33   6  32 NW5       30.26F WCI  29
LOUISVILLE/LOU SUNNY     32   8  36 NE5       30.27S WCI  27
FORT KNOX      SUNNY     30   6  36 VRB5      30.23S WCI  25
$$

KYZ035>037-039>044-047>052-055>060-089>105-112200-
NORTHEAST KENTUCKY

CITY           SKY/WX    TMP DP  RH WIND       PRES   REMARKS
LEXINGTON      SUNNY     28  12  51 CALM      30.24S
COVINGTON      MOSUNNY   25   6  44 W3        30.26S
FRANKFORT      SUNNY     29   7  39 NW6       30.25R WCI  23
$$

KYZ054-064>069-076>088-106>120-112200-
SOUTHEAST KENTUCKY

CITY           SKY/WX    TMP DP  RH WIND       PRES   REMARKS
JACKSON        SUNNY     30   7  37 VRB6      30.19S WCI  24
LONDON         SUNNY     33  10  38 NW3       30.20S
SOMERSET       SUNNY     32  18  55 N3        30.24S
MIDDLESBORO    MOSUNNY   36  18  48 N9        30.21R WCI  29
MONTICELLO     CLEAR     33  18  53 VRB5      30.24S WCI  29
$$




USA.gov is the U.S. government's official web portal to all federal, state and local government web resources and services.